Lafayette, Louisiana, United States (70501)
Lat: 30.22N, Lon: 92.02W
Wx Zone: LAZ044
Local Info
Past Weather Observations for Today

NOTE: This archive is for the closest National Weather Service station to Lafayette. Information may differ from the station used for current weather conditions.

Time Weather Temperature Dewpoint Humidity Pressure Winds Precip Visibility
17:53
Clear
75°F / 24°C 66°F / 19°C 74% 29.89 in
(1012 mb)
S 12.7 mph
(S 20 kph)
- 10SM
16:53
Partly Cloudy
77°F / 25°C 64°F / 18°C 65% 29.89 in
(1012 mb)
SSE 11.5 mph
(SSE 19 kph)
- 10SM
15:53
Mostly Cloudy
79°F / 26°C 64°F / 18°C 61% 29.89 in
(1012 mb)
S 10.4 mph
(S 17 kph)
- 10SM
14:53
Mostly Cloudy
79°F / 26°C 64°F / 18°C 61% 29.89 in
(1012 mb)
SW 17.3 mph
(SW 28 kph)
- 10SM
13:53
Partly Cloudy
79°F / 26°C 64°F / 18°C 61% 29.89 in
(1012 mb)
SSE 13.8 mph
(SSE 22 kph)
- 10SM
12:53
Overcast
79°F / 26°C 64°F / 18°C 61% 29.95 in
(1014 mb)
S 16.1 mph
(S 26 kph)
- 10SM
11:53
Mostly Cloudy
79°F / 26°C 66°F / 19°C 65% 29.95 in
(1014 mb)
S 12.7 mph
(S 20 kph)
- 10SM
10:53
Mostly Cloudy
79°F / 26°C 64°F / 18°C 61% 29.95 in
(1014 mb)
S 12.7 mph
(S 20 kph)
- 10SM
10:40
Mostly Cloudy
79°F / 26°C 66°F / 19°C 65% 29.95 in
(1014 mb)
S 11.5 mph
(S 19 kph)
- 10SM
09:53
Mostly Cloudy
79°F / 26°C 66°F / 19°C 65% 29.95 in
(1014 mb)
S 10.4 mph
(S 17 kph)
- 10SM
09:19
Mostly Cloudy
75°F / 24°C 66°F / 19°C 74% 29.98 in
(1015 mb)
SSE 10.4 mph
(SSE 17 kph)
- 10SM
09:09
Partly Cloudy
75°F / 24°C 66°F / 19°C 74% 29.98 in
(1015 mb)
S 8.1 mph
(S 13 kph)
- 10SM
08:53
Mostly Cloudy
75°F / 24°C 66°F / 19°C 74% 29.98 in
(1015 mb)
S 8.1 mph
(S 13 kph)
- 10SM
08:26
Mostly Cloudy
73°F / 23°C 66°F / 19°C 78% 29.98 in
(1015 mb)
SSE 4.6 mph
(SSE 7 kph)
- 10SM
07:53
Clear
70°F / 21°C 66°F / 19°C 88% 29.98 in
(1015 mb)
Calm - 7SM
07:37
Partly Cloudy
Fog And Mist
68°F / 20°C 66°F / 19°C 94% 29.95 in
(1014 mb)
Calm - 4SM
07:26
Partly Cloudy
Fog And Mist
66°F / 19°C 66°F / 19°C 100% 29.95 in
(1014 mb)
Calm - 2SM
07:09
Mostly Cloudy
Fog And Mist
64°F / 18°C 64°F / 18°C 100% 29.95 in
(1014 mb)
Calm - 1 3/4SM
06:58
Overcast
Fog And Mist
N/A N/A N/A 29.95 in
(1014 mb)
Calm - 1 1/4SM
06:53
Overcast
Fog And Mist
N/A N/A N/A 29.95 in
(1014 mb)
Calm - 3/4SM
05:53
Obscured
Fog
N/A N/A N/A 29.92 in
(1013 mb)
Calm - 1/4SM
05:47
Obscured
Fog
N/A N/A N/A 29.92 in
(1013 mb)
Calm - 1/2SM
05:30
Obscured
Fog
N/A N/A N/A 29.92 in
(1013 mb)
Calm - 1/4SM
04:53
Obscured
Fog
61°F / 16°C 61°F / 16°C 100% 29.89 in
(1012 mb)
Calm - 1/4SM
04:15
Obscured
Fog
61°F / 16°C 61°F / 16°C 100% 29.89 in
(1012 mb)
Calm - 1/4SM
04:08
Overcast
Fog And Mist
61°F / 16°C 61°F / 16°C 100% 29.89 in
(1012 mb)
Calm - 3/4SM
04:05
Overcast
Fog And Mist
61°F / 16°C 61°F / 16°C 100% 29.89 in
(1012 mb)
Calm - 1SM
03:58
Obscured
Fog And Mist
61°F / 16°C 61°F / 16°C 100% 29.89 in
(1012 mb)
Calm - 3/4SM
03:53
Overcast
Fog
61°F / 16°C 61°F / 16°C 100% 29.89 in
(1012 mb)
Calm - 1/4SM
03:20
Obscured
Fog
61°F / 16°C 61°F / 16°C 100% 29.89 in
(1012 mb)
Calm - 1/4SM
03:01
Obscured
Fog
61°F / 16°C 61°F / 16°C 100% 29.89 in
(1012 mb)
Calm - 1/4SM
02:53
Mostly Cloudy
Fog And Mist
63°F / 17°C 61°F / 16°C 94% 29.89 in
(1012 mb)
Calm - 1 1/4SM
02:48
Obscured
Fog And Mist
63°F / 17°C 61°F / 16°C 94% 29.89 in
(1012 mb)
Calm - 1SM
02:34
Obscured
Fog
63°F / 17°C 63°F / 17°C 100% 29.89 in
(1012 mb)
Calm - 1/4SM
02:30
Obscured
Fog
63°F / 17°C 63°F / 17°C 100% 29.89 in
(1012 mb)
Calm - 1/2SM
02:15
Clear
Fog And Mist
63°F / 17°C 63°F / 17°C 100% 29.89 in
(1012 mb)
Calm - 1 1/4SM
02:06
Clear
Fog And Mist
63°F / 17°C 63°F / 17°C 100% 29.92 in
(1013 mb)
Calm - 2 1/2SM
01:53
Clear
Fog And Mist
63°F / 17°C 63°F / 17°C 100% 29.92 in
(1013 mb)
Calm - 1 1/4SM
01:44
Partly Cloudy
Fog And Mist
63°F / 17°C 63°F / 17°C 100% 29.92 in
(1013 mb)
Calm - 1 1/2SM
01:39
Obscured
Fog
63°F / 17°C 63°F / 17°C 100% 29.92 in
(1013 mb)
Calm - 1/2SM
01:25
Obscured
Fog
63°F / 17°C 63°F / 17°C 100% 29.92 in
(1013 mb)
Calm - 1/4SM
01:15
Obscured
Fog
64°F / 18°C 63°F / 17°C 94% 29.92 in
(1013 mb)
Calm - 1/2SM
01:06
Clear
Fog And Mist
64°F / 18°C 64°F / 18°C 100% 29.92 in
(1013 mb)
Calm - 1 1/2SM
00:53
Clear
Fog And Mist
64°F / 18°C 63°F / 17°C 94% 29.92 in
(1013 mb)
Calm - 3SM
Time Weather Temperature Dewpoint Humidity Pressure Winds Precip Visibility


Weather for websites

WeatherForYou.com, LLC is not responsible for any damages or problems caused by this service. Current weather conditions are obtained from the closest station including government and personal stations which may have varying degrees of accuracy. Weather forecasts are derived from the NOAA NDFD. Like all things, this site belongs to Jesus Christ... He just trusts me to maintain it. If you have any questions or comments email webmaster@weatherforyou.com

Copyright © 2014, WeatherForYou.com LLC. All rights reserved.